Hettinger, ND

4:20 AM MDT on June 27, 2017 (GMT -0600)
Hettinger Municipal

Weather History for KHEI - December, 2011

Change the Weather History Date:

Sunday, December 18, 2011

  Actual Average Record
Temperature  
Mean Temperature 39 °F -  
Max Temperature 54 °F 29 °F 54 °F (2011)
Min Temperature 24 °F 6 °F -24 °F (1996)
Degree Days  
Heating Degree Days 26 48  
Month to date heating degree days 808 820  
Since 1 July heating degree days 2650 2950  
Moisture  
Dew Point 24 °F    
Average Humidity 68    
Maximum Humidity 85    
Minimum Humidity 32    
Precipitation  
Precipitation 0.00 in 0.01 in 0.02 in (2002)
Month to date precipitation 0.05 0.15  
Year to date precipitation 15.75 15.94  
Sea Level Pressure  
Sea Level Pressure 29.93 in    
Wind  
Wind Speed 10 mph (NW)    
Max Wind Speed 29 mph    
Max Gust Speed 37 mph    
Visibility 10 miles    
Events      
T = Trace of Precipitation, MM = Missing Value Source: NWS Daily Summary

Daily Weather History Graph

Daily Weather History Graph

Search for Another Location

Airport or City:

Trip Planner

Search our weather history database for the weather conditions in past years. The results will help you decide how hot, cold, wet, or windy it might be!

Date:

Astronomy

Dec. 18, 2011 Rise Set
Actual Time 7:27 AM MST 4:06 PM MST
Civil Twilight 6:53 AM MST 4:41 PM MST
Nautical Twilight 6:15 AM MST 5:19 PM MST
Astronomical Twilight 5:38 AM MST 5:55 PM MST
Moon 12:14 AM MST (12/18) 11:48 AM MST (12/18)
Length of Visible Light 9h 48m
Length of Day
8h 38m
Last Quarter, 41% of the Moon is Illuminated
Dec 18
Last Quarter
Dec 24
New
Dec 31
First Quarter
Jan 9
Full
Jan 16
Last Quarter

Hourly Weather History & Observations

Time (MST) Temp. Windchill Dew Point Humidity Pressure Visibility Wind Dir Wind Speed Gust Speed Precip Events Conditions
12:53 AM 30.9 °F 25.2 °F 23.0 °F 72% 29.95 in 10.0 mi West 5.8 mph - N/A   Clear
2:53 AM 30.9 °F 26.2 °F 21.9 °F 69% 29.92 in 10.0 mi West 4.6 mph - N/A   Clear
3:53 AM 28.9 °F 25.2 °F 21.0 °F 72% 29.91 in 10.0 mi NW 3.5 mph - N/A   Clear
4:53 AM 30.0 °F 24.1 °F 21.0 °F 69% 29.91 in 10.0 mi NW 5.8 mph - N/A   Clear
5:53 AM 28.0 °F 22.8 °F 19.9 °F 72% 29.89 in 10.0 mi West 4.6 mph - N/A   Clear
7:53 AM 30.0 °F 23.2 °F 21.0 °F 69% 29.86 in 10.0 mi WNW 6.9 mph - N/A   Clear
8:53 AM 37.9 °F 32.1 °F 23.0 °F 55% 29.83 in 10.0 mi WNW 8.1 mph - N/A   Clear
9:53 AM 45.0 °F 38.9 °F 24.1 °F 44% 29.81 in 10.0 mi West 12.7 mph - N/A   Clear
11:53 AM 51.1 °F - 24.1 °F 35% 29.78 in 10.0 mi West 11.5 mph - N/A   Clear
1:53 PM 53.1 °F - 25.0 °F 34% 29.76 in 10.0 mi NW 16.1 mph 23.0 mph N/A   Clear
2:53 PM 50.0 °F - 26.1 °F 39% 29.79 in 10.0 mi WNW 9.2 mph - N/A   Clear
4:53 PM 39.0 °F 32.8 °F 27.0 °F 62% 29.88 in 10.0 mi NW 9.2 mph - N/A   Clear
5:53 PM 37.9 °F 28.9 °F 28.9 °F 70% 29.92 in 10.0 mi NW 16.1 mph - N/A   Clear
7:07 PM 32.0 °F 18.9 °F 28.4 °F 87% 29.90 in 10.0 mi NNW 24.2 mph 33.4 mph N/A   Mostly Cloudy
7:23 PM 32.0 °F 18.9 °F 28.4 °F 87% 29.91 in 10.0 mi North 24.2 mph 34.5 mph N/A   Scattered Clouds
7:53 PM 32.0 °F 19.8 °F 28.9 °F 88% 30.02 in 10.0 mi NNW 20.7 mph 29.9 mph N/A   Mostly Cloudy
8:53 PM 32.0 °F 23.0 °F 28.0 °F 85% 30.05 in 10.0 mi NNW 11.5 mph - N/A   Overcast
9:39 PM 30.2 °F 21.3 °F 24.8 °F 80% 30.01 in 10.0 mi NNW 10.4 mph 18.4 mph N/A   Scattered Clouds
9:53 PM 30.0 °F 19.5 °F 25.0 °F 82% 30.07 in 10.0 mi NNW 13.8 mph 21.9 mph N/A   Clear
10:53 PM 27.0 °F 18.7 °F 21.9 °F 81% 30.12 in 10.0 mi NW 8.1 mph - N/A   Clear
11:53 PM 26.1 °F 19.4 °F 21.9 °F 84% 30.15 in 10.0 mi NW 5.8 mph - N/A   Clear